Shreveport, LA

12:38 AM CDT on July 25, 2017 (GMT -0500)
Shreveport Regional

Weather History for KSHV - June, 2012

Change the Weather History Date:

Saturday, June 30, 2012

  Actual Average Record
Temperature  
Mean Temperature 85 °F 82 °F  
Max Temperature 96 °F 92 °F 102 °F (1917)
Min Temperature 73 °F 72 °F 61 °F (1923)
Degree Days  
Heating Degree Days 0 0  
Month to date heating degree days 0 0  
Since 1 June heating degree days 0 0  
Since 1 July heating degree days 1535 2226  
Cooling Degree Days 20 17  
Month to date cooling degree days 527 444  
Year to date cooling degree days 1223 842  
Since 1 June cooling degree days 527 444  
Growing Degree Days 34 (Base 50)    
Moisture  
Dew Point 68 °F    
Average Humidity 59    
Maximum Humidity 84    
Minimum Humidity 34    
Precipitation  
Precipitation 0.00 in 0.17 in 2.67 in (1989)
Month to date precipitation 5.15 5.40  
Year to date precipitation 24.34 27.61  
Snow  
Snow 0.00 in - - ()
Month to date snowfall 0.0  
Since 1 June snowfall 0.0  
Since 1 July snowfall T  
Snow Depth 0.00 in    
Sea Level Pressure  
Sea Level Pressure 29.90 in    
Wind  
Wind Speed 6 mph (South)    
Max Wind Speed 16 mph    
Max Gust Speed 21 mph    
Visibility 10 miles    
Events      
T = Trace of Precipitation, MM = Missing Value Source: NWS Daily Summary

Daily Weather History Graph

Daily Weather History Graph

Search for Another Location

Airport or City:

Trip Planner

Search our weather history database for the weather conditions in past years. The results will help you decide how hot, cold, wet, or windy it might be!

Date:

Astronomy

Jun. 30, 2012 Rise Set
Actual Time 6:11 AM CDT 8:26 PM CDT
Civil Twilight 5:43 AM CDT 8:54 PM CDT
Nautical Twilight 5:08 AM CDT 9:29 PM CDT
Astronomical Twilight 4:30 AM CDT 10:07 PM CDT
Moon 5:26 PM CDT (6/30) 3:03 AM CDT (6/30)
Length of Visible Light 15h 11m
Length of Day
14h 15m
Waxing Gibbous, 87% of the Moon is Illuminated
Jun 30
Waxing Gibbous
Jul 3
Full
Jul 10
Last Quarter
Jul 18
New
Jul 26
First Quarter

Hourly Weather History & Observations

Time (CDT) Temp. Heat Index Dew Point Humidity Pressure Visibility Wind Dir Wind Speed Gust Speed Precip Events Conditions
12:56 AM 81.0 °F 83.8 °F 68.0 °F 65% 29.90 in 10.0 mi SW 5.8 mph - N/A   Clear
1:56 AM 79.0 °F - 66.9 °F 66% 29.89 in 10.0 mi SW 6.9 mph - N/A   Clear
2:56 AM 77.0 °F - 68.0 °F 74% 29.88 in 10.0 mi SW 4.6 mph - N/A   Clear
3:56 AM 77.0 °F - 66.9 °F 71% 29.88 in 9.0 mi SSW 4.6 mph - N/A   Clear
4:56 AM 75.9 °F - 66.9 °F 74% 29.89 in 10.0 mi SSW 3.5 mph - N/A   Clear
6:56 AM 73.9 °F - 68.0 °F 82% 29.91 in 8.0 mi Calm Calm - N/A   Scattered Clouds
7:56 AM 77.0 °F - 70.0 °F 79% 29.92 in 10.0 mi Calm Calm - N/A   Scattered Clouds
8:56 AM 81.0 °F 84.9 °F 71.1 °F 72% 29.94 in 8.0 mi SW 3.5 mph - N/A   Scattered Clouds
9:56 AM 84.0 °F 88.4 °F 70.0 °F 63% 29.94 in 9.0 mi SSW 4.6 mph - N/A   Mostly Cloudy
10:56 AM 89.1 °F 95.0 °F 71.1 °F 55% 29.94 in 10.0 mi Calm Calm - N/A   Mostly Cloudy
11:56 AM 90.0 °F 95.4 °F 70.0 °F 52% 29.92 in 10.0 mi SSE 5.8 mph - N/A   Scattered Clouds
12:56 PM 91.9 °F 97.4 °F 70.0 °F 48% 29.91 in 10.0 mi South 8.1 mph 19.6 mph N/A   Scattered Clouds
1:56 PM 93.0 °F 99.0 °F 70.0 °F 47% 29.91 in 9.0 mi South 8.1 mph 16.1 mph N/A   Scattered Clouds
2:56 PM 95.0 °F 97.9 °F 66.0 °F 38% 29.89 in 10.0 mi SE 11.5 mph - N/A   Scattered Clouds
3:56 PM 95.0 °F 96.0 °F 63.0 °F 34% 29.88 in 10.0 mi South 8.1 mph - N/A   Scattered Clouds
4:56 PM 93.0 °F 95.9 °F 66.0 °F 41% 29.88 in 10.0 mi SSE 12.7 mph - N/A   Mostly Cloudy
5:56 PM 91.9 °F 93.3 °F 64.0 °F 39% 29.86 in 10.0 mi South 12.7 mph - N/A   Mostly Cloudy
6:56 PM 91.0 °F 91.5 °F 62.1 °F 38% 29.87 in 10.0 mi SSE 10.4 mph - N/A   Mostly Cloudy
7:56 PM 88.0 °F 89.6 °F 64.9 °F 46% 29.86 in 10.0 mi SE 5.8 mph - N/A   Mostly Cloudy
8:56 PM 84.9 °F 87.6 °F 66.9 °F 55% 29.87 in 10.0 mi South 3.5 mph - N/A   Mostly Cloudy
9:56 PM 84.9 °F 88.8 °F 69.1 °F 59% 29.89 in 10.0 mi SSW 8.1 mph - N/A   Mostly Cloudy
10:56 PM 82.9 °F 87.5 °F 71.1 °F 67% 29.91 in 10.0 mi SSW 8.1 mph - N/A   Mostly Cloudy
11:56 PM 82.0 °F 86.7 °F 72.0 °F 71% 29.92 in 10.0 mi SSW 8.1 mph - N/A   Mostly Cloudy